Regional Weather Roundup
Issued by NWS

Home | Current Version | Previous Version | Text Only | Print | Product List | Glossary On
Versions: 1 2 3 4 5 6 7 8 9 10 11 12 13 14 15 16 17 18 19 20 21 22 23 24 25 26 27 28 29 30 31 32 33 34 35 36 37 38 39 40 41 42 43 44 45 46 47 48 49 50
000
ASUS43 KTOP 232159
RWRKS

WEATHER ROUNDUP FOR KANSAS
NATIONAL WEATHER SERVICE GOODLAND KS
500 PM CDT SAT MAY 23 2015

NOTE:  "FAIR" INDICATES FEW OR NO CLOUDS BELOW 12,000 FEET WITH NO
SIGNIFICANT WEATHER AND/OR OBSTRUCTIONS TO VISIBILITY.

KSZ001>006-013>018-027>032-041>047-232300-
NORTHWEST KANSAS

CITY           SKY/WX    TMP DP  RH WIND       PRES   REMARKS
GOODLAND       PTSUNNY   67  55  65 SE18G24   29.90F
HAYS           CLOUDY    61  52  72 E14       29.95F
HILL CITY      CLOUDY    65  56  72 SE18G28   29.94F
RUSSELL        CLOUDY    60  58  92 NE12      29.94F
$$

KSZ061>065-074>080-084>089-232300-
SOUTHWEST KANSAS

CITY           SKY/WX    TMP DP  RH WIND       PRES   REMARKS
DODGE CITY     CLOUDY    61  56  83 SE12      29.92F
ELKHART          N/A     63  52  67 SE23        N/A
GARDEN CITY    PTSUNNY   64  56  75 SE16G26   29.91S
GREAT BEND     CLOUDY    61  55  82 SE12      29.93F
LIBERAL        PTSUNNY   64  57  77 SE16      29.93F
$$

KSZ066>073-081>083-090>101-232300-
SOUTHEAST KANSAS

CITY           SKY/WX    TMP DP  RH WIND       PRES   REMARKS
CHANUTE        CLOUDY    65  63  93 E10       30.01F
COFFEYVILLE    TSTM      69  66  90 SE12      30.01F FOG
HUTCHINSON     RAIN      59  56  89 E16       29.99F FOG
NEWTON         CLOUDY    57  54  88 NE9       30.07R
PARSONS        CLOUDY    71  65  81 VRB6      30.01F
WICHITA INTL   TSTM      59  57  93 NE13      30.03S FOG
WICHITA JABRA  HVY RAIN  58  57  97 NE10      30.04S FOG
WINFIELD       HVY RAIN  59  59 100 N13       30.00F FOG
$$

KSZ007>012-019>026-033>040-048>060-102>105-232300-
NORTHEAST KANSAS

CITY           SKY/WX    TMP DP  RH WIND       PRES   REMARKS
CONCORDIA      CLOUDY    60  58  92 E12       30.00F
EMPORIA        TSTM      60  59  96 N9        30.06S FOG
LAWRENCE       CLOUDY    67  60  78 SE12      30.07F
MANHATTAN      LGT RAIN  61  61 100 E6        30.07F FOG
OLATHE IND     CLOUDY    66  61  84 E10       30.08F
OLATHE EXE     CLOUDY    66  61  84 SE10      30.08F
SALINA         LGT RAIN  60  58  92 SE29G45   29.92F
TOPEKA BILLARD CLOUDY    65  62  90 E10       30.06F
TOPEKA FORBES  LGT RAIN  65  61  87 E10       30.05F
$$



USA.gov is the U.S. government's official web portal to all federal, state and local government web resources and services.